Weather History for Cut Bank, MT

Change the Weather History Date:

Monday, February 4, 2013

  Actual Average Record
Temperature  
Mean Temperature 39 °F 23 °F  
Max Temperature 47 °F 34 °F 63 °F (1992)
Min Temperature 31 °F 12 °F -32 °F (1985)
Degree Days  
Heating Degree Days 26 42  
Month to date heating degree days 98 168  
Since 1 July heating degree days 4841 5086  
Cooling Degree Days 0 0  
Month to date cooling degree days 0 0  
Year to date cooling degree days 0 0  
Moisture  
Dew Point 23 °F    
Average Humidity 56    
Maximum Humidity 69    
Minimum Humidity 42    
Precipitation  
Precipitation 0.00 in 0.00 in 0.25 in (1927)
Month to date precipitation 0.00 0.02  
Year to date precipitation 0.42 0.22  
Snow  
Snow 0.00 in - - ()
Snow Depth 0.00 in    
Sea Level Pressure  
Sea Level Pressure 29.82 in    
Wind  
Wind Speed 20 mph (West)    
Max Wind Speed 40 mph    
Max Gust Speed 48 mph    
Visibility 10 miles    
Events      
T = Trace of Precipitation, MM = Missing Value Source: NWS Daily Summary

Daily Weather History Graph

Daily Weather History Graph

Search for Another Location

Airport:

Trip Planner

Search our weather history database for the weather conditions in past years. The results will help you decide how hot, cold, wet, or windy it might be!

Date:

Astronomy

Feb. 04, 2013 Rise Set
Actual Time 7:54 AM MST 5:33 PM MST
Civil Twilight 7:20 AM MST 6:06 PM MST
Nautical Twilight 6:43 AM MST 6:44 PM MST
Astronomical Twilight 6:06 AM MST 7:20 PM MST
Moon 2:40 AM MST (2/4) 11:52 AM MST (2/4)
Length of Visible Light 10h 46m
Length of Day
9h 39m
Last Quarter, 36% of the Moon is Illuminated
Feb 4
Last Quarter
Feb 10
New
Feb 17
First Quarter
Feb 25
Full
Mar 4
Last Quarter

Hourly Weather History & Observations

Time (MST) Temp. Windchill Dew Point Humidity Pressure Visibility Wind Dir Wind Speed Gust Speed Precip Events Conditions
12:56 AM 39.0 °F 28.8 °F 23.0 °F 53% 29.81 in 10.0 mi West 21.9 mph - N/A   Overcast
1:56 AM 37.9 °F 27.3 °F 24.1 °F 57% 29.81 in 10.0 mi West 21.9 mph 26.5 mph N/A   Overcast
3:56 AM 36.0 °F 26.7 °F 24.1 °F 62% 29.80 in 10.0 mi WSW 15.0 mph - N/A   Clear
4:56 AM 32.0 °F 28.7 °F 23.0 °F 69% 29.83 in 10.0 mi WNW 3.5 mph - N/A   Clear
5:56 AM 33.1 °F 25.5 °F 21.9 °F 64% 29.82 in 10.0 mi SW 9.2 mph - N/A   Clear
6:56 AM 35.1 °F 25.9 °F 24.1 °F 64% 29.81 in 10.0 mi West 13.8 mph - N/A   Clear
7:56 AM 37.0 °F 27.0 °F 21.0 °F 52% 29.80 in 10.0 mi West 18.4 mph - N/A   Clear
8:56 AM 37.9 °F 27.1 °F 21.9 °F 53% 29.80 in 10.0 mi West 23.0 mph - N/A   Clear
9:56 AM 41.0 °F 29.3 °F 23.0 °F 49% 29.76 in 10.0 mi West 33.4 mph 40.3 mph N/A   Clear
10:56 AM 42.1 °F 32.6 °F 25.0 °F 51% 29.78 in 10.0 mi West 23.0 mph 36.8 mph N/A   Clear
11:56 AM 43.0 °F 32.5 °F 24.1 °F 47% 29.77 in 10.0 mi West 29.9 mph 41.4 mph N/A   Clear
12:56 PM 43.0 °F 31.8 °F 25.0 °F 49% 29.76 in 10.0 mi West 34.5 mph 42.6 mph N/A   Clear
1:56 PM 42.1 °F 30.6 °F 24.1 °F 49% 29.76 in 10.0 mi West 34.5 mph 43.7 mph N/A   Clear
2:56 PM 46.0 °F 36.9 °F 25.0 °F 44% 29.75 in 10.0 mi West 28.8 mph 40.3 mph N/A   Clear
3:56 PM 44.1 °F 33.3 °F 24.1 °F 45% 29.78 in 10.0 mi West 34.5 mph 42.6 mph N/A   Clear
4:56 PM 39.0 °F 31.4 °F 25.0 °F 57% 29.84 in 10.0 mi West 12.7 mph - N/A   Clear
5:56 PM 34.0 °F 27.2 °F 23.0 °F 64% 29.88 in 10.0 mi WNW 8.1 mph - N/A   Clear
6:56 PM 33.1 °F 24.4 °F 23.0 °F 66% 29.90 in 10.0 mi WNW 11.5 mph - N/A   Clear
7:56 PM 33.1 °F 23.9 °F 24.1 °F 70% 29.90 in 10.0 mi West 12.7 mph - N/A   Partly Cloudy
8:56 PM 33.1 °F 24.9 °F 23.0 °F 66% 29.89 in 10.0 mi WSW 10.4 mph - N/A   Clear
9:56 PM 37.9 °F 29.2 °F 23.0 °F 55% 29.88 in 10.0 mi West 15.0 mph - N/A   Clear
10:56 PM 36.0 °F 27.5 °F 23.0 °F 59% 29.89 in 10.0 mi WSW 12.7 mph - N/A   Clear
11:56 PM 35.1 °F 24.5 °F 21.9 °F 59% 29.90 in 10.0 mi West 18.4 mph 21.9 mph N/A   Clear